Location: Killam
(52.7910°N, 111.8608°W)
Time: 10:49:03
(UTC+00:00)

UWE-3 - Visible Passes

Search period start: 15 March 2026 00:00
Search period end: 25 March 2026 00:00
Orbit: 545 x 612 km, 97.9° (Epoch: 14 March)

Date Brightness Start Highest point End Pass type
(mag) Time Alt. Az. Time Alt. Az. Time Alt. Az.
15 Mar ? 10:26:16 10° NNE 10:29:26 48° NNE 10:29:26 48° NNE visible
15 Mar ? 12:02:34 10° NNW 12:05:20 17° NW 12:05:45 17° WNW visible
16 Mar ? 08:57:21 10° ENE 08:57:45 11° ENE 08:57:45 11° ENE visible
16 Mar ? 10:30:44 10° NNE 10:34:04 53° NNE 10:34:04 53° NNE visible
16 Mar ? 12:07:10 10° NNW 12:09:44 16° NW 12:10:22 15° WNW visible
17 Mar ? 09:01:30 10° ENE 09:02:22 12° ENE 09:02:22 12° ENE visible
17 Mar ? 10:35:11 10° NNE 10:38:40 58° N 10:38:40 58° N visible
17 Mar ? 12:11:46 10° NNW 12:14:07 15° NW 12:14:59 14° WNW visible
18 Mar ? 09:05:41 10° NE 09:06:58 13° ENE 09:06:58 13° ENE visible
18 Mar ? 10:39:37 10° NNE 10:43:17 62° N 10:43:17 62° N visible
18 Mar ? 12:16:23 10° NNW 12:18:29 13° NW 12:19:35 12° WNW visible
19 Mar ? 09:09:54 10° NE 09:11:33 15° ENE 09:11:33 15° ENE visible
19 Mar ? 10:44:02 10° N 10:47:51 64° NNW 10:47:51 64° NNW visible
19 Mar ? 12:21:01 10° NNW 12:22:50 12° NW 12:24:10 11° WNW visible
20 Mar ? 09:14:09 10° NE 09:16:07 16° ENE 09:16:07 16° ENE visible
20 Mar ? 10:48:27 10° N 10:52:25 63° NW 10:52:25 63° NW visible
20 Mar ? 12:25:42 10° NNW 12:27:10 12° NW 12:28:36 10° WNW visible
21 Mar ? 09:18:24 10° NE 09:20:41 18° ENE 09:20:41 18° ENE visible
21 Mar ? 10:52:52 10° N 10:56:59 59° WNW 10:56:59 59° WNW visible
21 Mar ? 12:30:31 10° NW 12:31:29 11° NW 12:32:26 10° WNW visible
22 Mar ? 09:22:39 10° NE 09:25:13 20° ENE 09:25:13 20° ENE visible
22 Mar ? 10:57:16 10° N 11:01:26 54° WNW 11:01:31 54° WNW visible
23 Mar ? 09:26:54 10° NE 09:29:45 22° E 09:29:45 22° E visible
23 Mar ? 11:01:39 10° N 11:05:47 49° WNW 11:06:03 49° W visible
24 Mar ? 09:31:10 10° NE 09:34:15 24° E 09:34:15 24° E visible
24 Mar ? 11:06:03 10° N 11:10:06 45° WNW 11:10:33 43° W visible
